Terminal Aerodrome Forecast
Issued by NWS

Home | Current Version | Previous Version | Text Only | Print | Product List | Glossary On
Versions: 1 2 3 4 5 6 7 8 9 10 11 12 13 14 15 16 17 18 19
000
FTUS41 KALY 041645 AAC
TAFPSF
TAF AMD
KPSF 041645Z 0417/0512 00000KT 3SM -RA BR BKN004 OVC070
      TEMPO 0417/0419 6SM -RA SCT004 OVC070
     FM042000 21004KT P6SM VCSH BKN035 OVC050
     FM050200 00000KT P6SM BKN035 BKN050
     FM050500 00000KT 5SM BR SCT050
     FM050700 00000KT 2SM BR SCT005=

USA.gov is the U.S. government's official web portal to all federal, state and local government web resources and services.